Wind_Speed
38 39 41 40 38 36 35 36 36 37 39 41 43 44 44 45 45 46 47 45 41 40 43 47 51 53 55 54 54 54 54 54 54 56 57 59 60 61 61 61 60 59 59 59
39 39 40 43 45 45 42 40 42 44 47 48 48 48 49 49 49 49 48 48 47 48 51 54 55 56 57 57 57 56 56 55 55 56 56 56 57 57 57 57 57 57 58 57
41 40 40 44 46 48 48 47 47 48 50 50 50 50 50 49 49 49 51 53 54 56 57 56 56 56 56 56 55 55 54 54 53 53 52 52 53 54 54 53 54 55 55 56
40 39 37 39 42 45 46 48 49 51 52 53 53 53 53 54 55 56 57 58 57 56 55 55 55 54 54 54 53 53 52 51 50 49 49 49 50 50 50 51 52 53 53 53
36 36 35 33 35 38 39 41 43 46 48 50 52 52 52 53 54 54 54 53 53 52 53 53 53 53 53 52 51 49 47 45 44 44 45 46 47 48 49 49 50 50 49 47
34 34 34 33 33 35 36 38 39 41 42 44 44 45 46 47 48 48 49 49 50 50 50 51 51 51 50 48 46 43 42 41 41 42 43 44 45 46 46 46 44 43 42 43
29 30 31 30 30 30 33 34 35 37 39 40 42 42 43 44 45 45 46 47 47 47 48 47 47 46 44 42 40 39 38 39 40 40 41 42 41 41 41 40 40 41 41 40
23 24 25 24 25 26 27 29 32 34 35 37 38 40 41 42 43 43 43 43 44 44 43 42 41 39 38 37 36 36 36 37 37 37 37 37 37 38 38 38 38 37 36 35
20 21 22 23 24 24 25 26 28 30 32 34 36 37 38 39 39 39 39 40 40 38 37 36 35 34 33 33 33 33 33 33 33 34 35 36 36 36 35 34 33 32 30 29
20 21 22 23 23 24 25 26 27 29 30 32 32 33 34 34 34 34 34 33 32 31 30 29 29 29 29 29 29 30 31 32 34 35 35 34 34 33 31 29 28 26 25 24
20 20 21 22 23 24 25 26 27 28 29 29 29 29 29 29 28 27 26 25 24 24 24 24 24 25 26 27 29 30 31 32 33 33 32 31 29 27 25 24 22 21 20 19
19 21 22 23 24 25 25 25 25 25 25 25 24 23 22 21 20 20 19 18 18 18 19 20 22 24 26 28 29 30 31 31 30 29 27 25 23 22 20 19 18 17 17 16
18 19 21 22 22 22 22 21 21 20 20 18 17 15 14 14 14 13 13 13 14 15 18 20 22 25 27 28 29 29 29 28 26 25 23 20 18 17 16 15 15 15 14 13
16 17 17 18 18 17 16 15 14 14 12 11 10 9 8 8 8 8 9 11 13 16 19 21 23 25 27 27 27 27 26 24 23 21 19 17 15 13 13 12 12 11 10 10
13 14 14 14 13 12 11 10 9 7 6 5 4 4 4 4 5 6 9 11 14 17 20 22 24 26 26 26 25 24 22 21 20 18 16 14 12 11 10 9 8 7 7 7
11 10 9 8 6 5 6 5 4 3 1 1 1 2 3 4 6 8 11 14 16 19 21 24 25 26 26 26 24 23 21 19 17 15 13 11 10 8 7 6 5 4 5 5
7 5 3 2 1 3 4 4 4 3 2 3 3 4 5 6 8 11 13 16 19 21 23 25 25 26 25 25 24 22 19 17 15 13 10 9 7 6 4 3 3 4 4 6
4 2 1 2 4 5 6 6 5 5 5 5 6 7 7 9 11 13 16 18 20 23 24 25 26 26 26 25 24 21 19 16 14 12 10 8 6 5 5 5 5 6 7 9
2 1 2 4 6 7 7 7 7 7 8 8 8 9 9 11 13 15 18 20 22 23 25 26 27 27 27 27 25 23 20 18 15 13 12 10 9 8 8 8 9 9 10 11
1 2 4 5 6 7 7 8 9 9 9 9 10 10 10 12 14 17 19 21 23 24 25 27 28 29 29 28 26 24 22 20 18 16 14 13 12 12 12 12 13 13 14 14
2 3 5 5 5 6 8 9 10 10 10 10 10 10 11 13 14 17 19 22 23 24 26 28 30 32 32 31 29 27 25 23 21 19 18 17 17 17 16 16 16 16 16 16
4 4 5 6 6 7 8 9 10 10 10 10 9 10 11 13 15 17 20 22 23 25 27 29 31 33 34 33 32 30 28 27 25 24 22 22 21 20 19 18 18 17 16 15
5 5 5 5 6 7 8 9 10 10 10 9 9 10 11 12 14 16 19 21 23 25 27 30 32 33 35 35 34 33 32 30 29 28 26 25 24 22 21 19 18 17 15 14
7 6 6 5 6 6 8 9 10 10 10 9 9 9 10 11 13 15 18 20 22 25 27 29 31 32 34 36 36 36 35 34 33 32 30 28 26 24 22 20 18 16 14 13
8 7 6 6 6 7 8 9 10 10 10 9 8 8 9 10 11 13 16 18 21 23 25 27 29 31 33 35 36 37 37 37 37 36 35 33 30 28 26 23 21 19 16 13
9 7 7 6 7 7 8 9 10 11 10 9 8 8 8 9 10 12 14 17 19 21 22 24 27 29 31 33 34 35 36 37 37 38 38 37 35 33 30 28 26 24 21 18
10 9 7 7 7 7 8 9 11 12 11 10 9 9 8 8 9 10 12 15 17 18 20 22 25 27 29 30 31 32 34 35 35 35 36 36 36 35 34 32 30 28 27 24
Wind_Direction
235 231 231 236 239 243 245 247 249 252 256 261 265 267 267 267 269 271 272 274 277 281 285 286 288 291 292 293 292 293 292 290 288 286 285 285 285 286 287 289 290 292 294 295
244 243 242 243 247 251 254 256 258 260 263 265 266 267 267 267 267 270 272 276 282 286 288 289 290 290 290 291 292 292 292 290 289 288 287 287 288 288 289 291 292 294 296 298
252 253 252 250 250 252 254 255 258 260 262 264 264 265 268 270 272 275 279 283 287 288 289 289 290 290 290 291 291 291 291 290 290 290 289 289 289 290 292 293 295 295 297 299
253 253 254 254 253 252 253 253 254 255 257 260 264 267 271 275 279 282 284 286 287 288 289 290 290 291 291 292 292 292 292 292 291 290 289 289 290 292 294 295 296 297 299 299
251 250 251 251 253 254 254 255 255 256 258 261 264 268 272 275 277 280 282 285 287 289 290 291 292 292 293 293 293 294 294 293 291 290 290 290 292 293 295 295 297 298 299 299
252 253 254 255 255 256 257 258 259 261 262 265 267 270 273 275 277 280 282 285 287 289 290 290 291 292 293 294 294 293 293 292 291 291 292 292 293 294 296 297 298 299 300 301
254 256 258 259 261 260 259 261 262 263 265 268 270 272 275 277 280 282 284 286 287 288 289 291 292 293 294 295 295 294 293 293 294 294 295 296 296 298 300 300 301 301 302 302
252 258 262 263 265 265 266 264 264 265 267 269 271 274 276 278 281 283 285 286 288 289 290 292 293 294 295 296 295 295 295 295 296 297 298 299 300 301 302 302 303 303 303 303
263 267 267 267 269 270 269 269 270 270 271 272 273 275 277 280 282 284 286 288 289 291 292 293 295 296 296 297 297 298 298 299 301 302 302 303 303 304 304 304 304 304 304 304
268 270 270 271 271 272 274 275 276 276 277 278 279 281 282 284 285 286 288 290 291 292 294 295 297 297 298 300 302 303 305 305 305 305 305 305 305 304 304 304 304 304 306 307
271 271 271 271 273 274 275 276 277 278 280 282 284 286 287 287 287 289 292 294 295 296 297 299 301 303 306 309 310 310 309 308 307 307 306 305 304 303 304 304 306 308 310 312
268 270 273 275 277 278 279 278 279 280 282 284 287 290 291 290 291 293 296 298 301 304 306 309 312 314 315 315 314 313 312 310 309 308 307 306 305 305 306 308 310 312 313 316
273 276 279 281 280 280 281 282 283 283 284 285 288 290 292 293 296 299 304 309 313 317 320 323 323 322 321 320 319 318 317 315 314 313 312 310 309 308 308 309 311 313 317 321
283 285 285 284 282 279 278 281 282 283 280 280 285 289 294 299 307 315 321 326 330 333 333 331 329 329 329 328 326 325 323 322 320 319 318 316 314 312 311 311 312 317 322 328
292 291 289 287 282 277 273 273 274 270 269 275 287 298 314 331 342 347 348 348 345 343 340 339 338 338 338 336 334 332 330 328 326 324 322 320 318 316 315 316 318 323 332 344
304 299 294 291 280 264 251 242 234 236 237 311 1 20 28 26 17 11 5 359 354 352 350 350 349 348 346 345 342 340 338 334 331 329 326 324 322 321 323 327 337 347 1 18
317 320 324 316 205 180 180 176 167 146 109 89 81 78 66 47 32 21 12 6 3 2 1 0 359 357 355 353 350 348 345 342 340 340 341 341 341 347 360 14 24 33 49 61
335 343 62 131 144 150 147 139 131 117 107 103 99 87 68 51 37 26 18 14 13 12 10 8 6 5 2 1 0 0 359 359 1 5 9 15 21 30 45 57 66 77 80 81
339 89 124 129 135 137 131 121 117 112 109 108 99 83 67 51 39 30 25 22 21 19 17 15 13 12 10 11 12 13 15 18 23 28 34 41 49 61 73 78 83 88 89 92
166 136 136 134 131 129 125 120 116 114 113 108 96 81 67 53 42 35 31 29 27 26 25 23 22 21 21 22 23 25 28 32 37 41 47 54 63 73 80 85 89 92 94 97
163 150 149 145 138 134 128 123 119 117 114 108 95 82 69 57 47 41 37 36 34 34 32 31 31 31 30 31 33 36 39 42 45 51 58 64 70 76 82 86 89 92 95 98
163 155 147 143 138 136 133 128 124 121 118 110 98 85 72 60 51 46 44 42 41 40 39 38 38 37 37 39 41 44 46 49 53 58 64 68 72 76 79 83 86 89 91 94
176 170 159 150 144 141 139 136 133 129 124 115 104 92 79 67 58 53 51 48 46 45 44 43 43 43 43 45 47 49 52 54 58 61 65 68 70 73 76 79 81 83 85 87
179 175 170 165 156 149 148 146 143 139 133 125 113 101 87 73 64 59 55 53 51 49 48 48 48 48 49 50 52 54 56 58 61 63 65 67 69 70 72 73 74 76 78 80
178 175 174 173 170 161 157 155 152 149 145 137 124 111 96 82 71 65 60 57 55 53 52 52 53 53 53 54 55 57 59 61 63 63 64 65 67 67 68 67 68 68 70 73
182 180 179 177 175 171 165 162 160 159 156 150 139 125 110 94 81 72 67 63 59 56 55 55 56 57 57 57 58 59 60 62 63 63 64 64 64 64 64 64 64 64 64 66
184 182 180 179 177 176 174 171 169 169 167 162 153 140 125 109 94 83 75 70 65 61 59 59 59 59 59 59 59 60 61 61 62 62 62 62 62 61 62 62 63 63 63 64
Height
5754 5758 5760 5761 5761 5761 5761 5762 5765 5767 5768 5769 5769 5769 5768 5767 5766 5764 5763 5760 5757 5755 5754 5752 5750 5747 5743 5740 5736 5732 5728 5724 5720 5715 5710 5705 5700 5694 5689 5684 5679 5675 5669 5664
5746 5749 5753 5753 5752 5752 5753 5755 5757 5759 5760 5761 5761 5760 5759 5757 5755 5753 5752 5749 5747 5745 5743 5741 5738 5735 5731 5727 5723 5718 5714 5709 5705 5700 5695 5690 5685 5679 5674 5670 5665 5660 5655 5649
5737 5739 5742 5742 5742 5743 5745 5747 5750 5751 5751 5751 5751 5751 5748 5746 5744 5742 5740 5738 5736 5734 5731 5728 5725 5721 5718 5713 5709 5704 5699 5695 5690 5685 5680 5675 5670 5665 5661 5656 5651 5646 5641 5636
5728 5731 5732 5731 5731 5733 5736 5738 5740 5741 5741 5740 5740 5739 5737 5735 5733 5731 5729 5727 5724 5721 5718 5715 5712 5708 5703 5699 5694 5690 5685 5680 5675 5670 5666 5661 5657 5652 5648 5643 5638 5633 5628 5623
5718 5720 5722 5722 5722 5724 5726 5727 5729 5730 5730 5729 5729 5729 5727 5725 5723 5720 5718 5715 5712 5709 5706 5702 5698 5694 5690 5685 5681 5676 5671 5667 5662 5658 5653 5649 5644 5640 5635 5630 5625 5620 5615 5610
5708 5711 5713 5715 5715 5715 5718 5718 5720 5719 5719 5719 5718 5718 5717 5714 5712 5710 5707 5705 5702 5698 5695 5691 5687 5682 5678 5673 5668 5664 5659 5655 5650 5646 5642 5637 5633 5628 5623 5618 5613 5608 5603 5598
5700 5702 5704 5707 5707 5708 5710 5711 5710 5709 5709 5708 5708 5707 5706 5704 5702 5700 5697 5694 5691 5688 5684 5680 5675 5671 5666 5662 5657 5653 5648 5644 5639 5635 5630 5626 5621 5616 5611 5607 5602 5597 5592 5587
5694 5696 5699 5699 5699 5701 5701 5701 5700 5700 5700 5699 5699 5697 5696 5694 5692 5689 5687 5684 5681 5677 5673 5669 5665 5661 5656 5652 5647 5643 5638 5634 5629 5625 5620 5615 5611 5606 5601 5597 5592 5587 5582 5577
5689 5691 5691 5691 5692 5692 5692 5692 5692 5692 5691 5691 5690 5688 5687 5685 5683 5680 5678 5674 5671 5667 5663 5659 5656 5651 5647 5643 5638 5633 5629 5624 5619 5615 5610 5606 5601 5596 5592 5587 5582 5578 5573 5569
5682 5683 5684 5684 5684 5684 5685 5685 5684 5683 5683 5682 5681 5679 5678 5676 5674 5671 5668 5665 5662 5658 5655 5651 5647 5643 5639 5635 5630 5625 5620 5615 5610 5606 5601 5596 5592 5587 5583 5579 5575 5571 5567 5563
5676 5677 5677 5677 5677 5677 5677 5677 5676 5675 5675 5673 5672 5671 5669 5667 5665 5663 5660 5658 5655 5651 5648 5645 5641 5637 5632 5628 5623 5618 5613 5608 5602 5597 5592 5588 5583 5580 5576 5572 5569 5566 5562 5559
5672 5671 5671 5671 5670 5670 5670 5669 5669 5668 5667 5666 5665 5664 5662 5660 5659 5657 5655 5652 5649 5646 5643 5639 5635 5631 5626 5621 5616 5611 5605 5600 5594 5589 5585 5580 5577 5573 5570 5567 5564 5562 5559 5556
5666 5665 5665 5664 5664 5663 5662 5662 5661 5661 5660 5660 5659 5658 5657 5656 5654 5653 5651 5649 5646 5643 5639 5635 5631 5626 5620 5615 5609 5603 5597 5591 5586 5582 5578 5574 5571 5568 5566 5564 5561 5558 5556 5553
5661 5660 5659 5658 5657 5657 5657 5656 5656 5656 5656 5656 5656 5655 5654 5653 5652 5651 5649 5646 5643 5640 5636 5632 5627 5621 5615 5609 5602 5596 5590 5585 5580 5576 5572 5569 5567 5564 5562 5560 5558 5556 5554 5552
5656 5655 5654 5653 5652 5652 5652 5653 5653 5653 5653 5654 5654 5654 5653 5652 5651 5650 5647 5645 5642 5638 5633 5628 5622 5616 5610 5603 5597 5591 5585 5580 5575 5571 5568 5565 5563 5561 5559 5558 5556 5554 5553 5551
5652 5651 5650 5649 5649 5649 5650 5651 5652 5653 5653 5653 5653 5653 5653 5652 5651 5649 5647 5644 5641 5636 5631 5625 5619 5612 5606 5599 5593 5586 5581 5576 5572 5568 5565 5562 5560 5559 5557 5556 5555 5553 5552 5551
5650 5649 5648 5648 5648 5649 5650 5651 5652 5653 5653 5654 5654 5654 5653 5653 5651 5649 5647 5644 5639 5635 5629 5623 5617 5610 5604 5597 5590 5584 5578 5573 5569 5566 5563 5560 5558 5557 5556 5555 5554 5553 5552 5551
5650 5649 5649 5649 5649 5650 5651 5652 5653 5654 5654 5655 5655 5655 5654 5654 5652 5650 5647 5643 5639 5634 5628 5623 5616 5610 5602 5595 5588 5582 5577 5572 5568 5564 5561 5559 5558 5556 5556 5555 5554 5554 5554 5553
5650 5650 5650 5650 5651 5651 5652 5653 5654 5655 5655 5656 5656 5656 5656 5655 5653 5651 5648 5644 5640 5635 5630 5624 5617 5610 5602 5595 5588 5582 5576 5572 5568 5565 5562 5560 5559 5557 5557 5557 5556 5556 5556 5556
5651 5651 5651 5652 5652 5653 5654 5655 5656 5657 5657 5658 5658 5658 5658 5657 5655 5653 5650 5646 5642 5637 5632 5626 5619 5612 5604 5596 5590 5584 5578 5574 5570 5567 5565 5563 5561 5560 5560 5560 5560 5560 5560 5561
5651 5652 5652 5653 5654 5655 5656 5657 5658 5659 5659 5660 5660 5661 5660 5659 5658 5656 5652 5649 5645 5640 5635 5629 5622 5615 5608 5600 5594 5588 5583 5578 5574 5571 5569 5567 5566 5565 5565 5565 5565 5565 5565 5566
5652 5653 5653 5654 5655 5656 5657 5658 5659 5660 5661 5662 5663 5663 5663 5662 5660 5658 5656 5652 5649 5644 5639 5633 5627 5620 5613 5607 5600 5594 5589 5585 5581 5578 5575 5574 5572 5572 5571 5571 5571 5571 5571 5571
5652 5653 5654 5655 5656 5658 5659 5660 5661 5662 5663 5664 5665 5665 5665 5665 5664 5662 5659 5657 5653 5649 5644 5639 5633 5627 5621 5615 5608 5603 5598 5593 5589 5586 5583 5582 5580 5579 5578 5578 5577 5577 5577 5577
5651 5653 5654 5656 5657 5659 5660 5661 5662 5664 5665 5666 5667 5668 5668 5667 5667 5665 5663 5661 5658 5654 5650 5645 5640 5635 5629 5624 5618 5612 5607 5603 5599 5595 5593 5590 5589 5587 5586 5585 5584 5583 5582 5582
5651 5652 5654 5656 5657 5659 5660 5662 5663 5665 5667 5668 5669 5670 5670 5670 5670 5669 5667 5665 5662 5659 5656 5652 5648 5643 5638 5633 5628 5623 5619 5614 5610 5606 5603 5600 5598 5596 5594 5592 5590 5588 5587 5586
5650 5652 5654 5655 5657 5659 5661 5662 5664 5666 5668 5669 5671 5672 5672 5673 5672 5672 5671 5669 5667 5665 5662 5659 5655 5651 5647 5643 5639 5634 5630 5626 5622 5618 5615 5611 5608 5605 5602 5599 5597 5594 5592 5590
5649 5651 5653 5655 5657 5659 5661 5662 5664 5666 5668 5670 5672 5673 5674 5675 5675 5675 5674 5673 5671 5670 5668 5665 5662 5658 5655 5652 5648 5644 5640 5637 5633 5629 5625 5622 5618 5614 5611 5607 5604 5601 5598 5596